Regional Weather Roundup
Issued by NWS

Home | Current Version | Previous Version | Graphics & Text | Print | Product List | Glossary On
Versions: 1 2 3 4 5 6 7 8 9 10 11 12 13 14 15 16 17 18 19 20 21 22 23 24 25 26 27 28 29 30 31 32 33 34 35 36 37 38 39 40 41 42 43 44 45 46 47 48 49 50
000
ASUS43 KLOT 270808
RWRIL

ILLINOIS REGIONAL WEATHER ROUNDUP
NATIONAL WEATHER SERVICE CHICAGO/ROMEOVILLE IL
300 AM CDT WED JUL 27 2016

NOTE: "FAIR" INDICATES FEW OR NO CLOUDS BELOW 12,000 FEET WITH NO
SIGNIFICANT WEATHER AND/OR OBSTRUCTIONS TO VISIBILITY.

* THESE STATIONS ARE NOT UNDER NWS QUALITY CONTROL. THEY ALSO MAY NOT
  REPORT WEATHER SUCH AS PRECIPITATION OR FOG.

ILZ001-002-007-009-015-016-024-270900-
NORTHWEST ILLINOIS

CITY           SKY/WX    TMP DP  RH WIND       PRES   REMARKS
MOLINE         CLEAR     68  64  87 CALM      29.99S
STERLING*      CLEAR     66  66 100 CALM      30.01R
SAVANNA*       CLEAR     65  65  99 CALM      30.00S FOG
$$

ILZ003-004-008-010-011-017-018-270900-
NORTH CENTRAL ILLINOIS

CITY           SKY/WX    TMP DP  RH WIND       PRES   REMARKS
ROCKFORD       CLEAR     68  65  90 CALM      30.02R
FREEPORT*      CLEAR     62  60  93 CALM      30.03R
ROCHELLE*      CLEAR     64  64  98 CALM      30.02R
DE KALB*       CLEAR     66  63  89 CALM      30.02S
$$

ILZ005-006-012>014-019>023-270900-
NORTHEAST ILLINOIS

CITY           SKY/WX    TMP DP  RH WIND       PRES   REMARKS
CHICAGO-OHARE  CLEAR     71  63  75 SW3       29.99S
CHICAGO-MIDWAY CLEAR     75  63  66 CALM      29.99S
AURORA         CLEAR     66  64  93 NW3       30.01R
LANSING*       CLEAR     69  62  77 CALM      30.00S
JOLIET*        CLEAR     70  68  93 CALM      30.00R
WAUKEGAN       CLEAR     68  64  87 CALM      29.99S
DUPAGE AIRPORT CLEAR     68  64  87 CALM      30.00R
KANKAKEE*      CLEAR     67  65  94 CALM      30.01S
WHEELING       CLEAR     69  64  84 CALM      30.00F
MORRIS*        CLEAR     69  66  92 CALM      29.99S
ROMEOVILLE*    CLEAR     68  64  88 SW3       30.00S
NORTHERLY ISL    N/A     76  62  62 S5          N/A
$$

LMZ740>746-270900-
SOUTHERN LAKE MICHIGAN

STATION/POSITION SKY/WX   TEMP    WIND        PRES    VSBY  WAVE
                          AIR SEA DIR/SP/G                  HT/PER
                          (F)     (DEG/KT/KT) (MB)    (MI)  (FT/S)
SOUTHERN BUOY              75 76  190/  4/  6 1014.8S         0
WILMETTE HARBOR            71 71     CALM       N/A           0
HARRISON CRIB              78     180/  5/  5   N/A
BURNHAM HARBOR             76     220/  3/  5   N/A
CALUMET HARBOR             74     200/  1/  2 1015.1F
BURNS HARBOR               71     180/  3/  6 1016.3S
MICHIGAN CITY              72     130/  5/  6   N/A
MICHIGAN CITY 6N           75 76  210/  4/  6   N/A           0
ST. JOSEPH                 75 78  190/  2/  2 1015.1F         0
$$

ILZ025>027-034>036-040-047-049-050-058-095>099-270900-
WEST-CENTRAL ILLINOIS

CITY           SKY/WX    TMP DP  RH WIND       PRES   REMARKS
QUINCY         CLEAR     73  69  87 SE3       29.97F
GALESBURG*     CLEAR     65  65  97 CALM      30.00R
MACOMB*          N/A     67  66  99 CALM      30.01S FOG
JACKSONVILLE*  CLEAR     70  68  94 E3        29.98F
PITTSFIELD*    CLEAR     71  70  96 CALM      30.00F
$$

ILZ028>032-037-038-041>044-048-051>054-059>061-270900-
CENTRAL ILLINOIS

CITY           SKY/WX    TMP DP  RH WIND       PRES   REMARKS
PONTIAC        CLEAR     68  68 100 CALM      30.00F FOG
BLOOMINGTON    CLEAR     69  68  96 S6        30.01F
DECATUR        CLEAR     66  64  93 NE5       30.00S
PEORIA         PTCLDY    71  70  96 CALM      29.99F
LACON*         CLEAR     69  67  95 S3        29.98S
LINCOLN*       CLEAR     68  67  98 CALM      29.99F
SPRINGFIELD    MOCLDY    72  69  90 CALM      29.99F
TAYLORVILLE    PTCLDY    68  67  97 MISG      30.00S
$$

ILZ033-039-045-046-055>057-062-063-270900-
EAST-CENTRAL ILLINOIS

CITY           SKY/WX    TMP DP  RH WIND       PRES   REMARKS
CHAMPAIGN      CLEAR     66  64  93 E3        30.00F
MATTOON        PTCLDY    69  65  86 CALM      29.99S
PARIS*         FOG       65  65 100 CALM      30.00F VSB 1/2
$$

ILZ079-100>102-270900-
SOUTHWEST ILLINOIS

CITY           SKY/WX    TMP DP  RH WIND       PRES   REMARKS
ALTON          PTCLDY    73  73  99 CALM      29.97F
BELLEVILLE     PTCLDY    74  74 100 SE3       29.96F
CAHOKIA*       PTCLDY    75  73  93 CALM      29.96F FOG
SPARTA*        MOCLDY    73  73  99 CALM      29.99S FOG
$$

ILZ064>066-069>071-074>076-080>082-084>086-088>090-092>094-270900-
SOUTH-CENTRAL ILLINOIS

CITY           SKY/WX    TMP DP  RH WIND       PRES   REMARKS
CARBONDALE     FOG       73  72  96 CALM      29.97S VSB 1/4
CAIRO*         MOCLDY    74  73  98 E3        29.96S
EFFINGHAM*     PTCLDY    72  71  99 CALM      30.00F
MARION         CLOUDY    73  73 100 CALM      29.98S FOG
MT. VERNON     PTCLDY    73  68  83 MISG      29.97S
CENTRALIA*     CLEAR     74  74 100 CALM      29.97F FOG
SALEM*           N/A     74  73  95 CALM      29.98S FOG
METROPOLIS*    PTCLDY    73  73  98 CALM      29.97S FOG
$$

ILZ067-068-072-073-078-083-087-091-270900-
SOUTHEAST ILLINOIS

CITY           SKY/WX    TMP DP  RH WIND       PRES   REMARKS
LAWRENCEVILLE  PTCLDY    74  73  97 CALM      29.98S
FLORA*         PTCLDY    74  73  97 CALM      29.98S FOG
FAIRFIELD*     PTCLDY    73  73 100 CALM      29.97R
HARRISBURG*    FOG       72  72 100 CALM      29.97F VSB 1/4
ROBINSON*      PTCLDY    69  69 100 CALM      29.99S FOG
CARMI*         CLEAR     72  72 100 CALM      29.97S FOG
$$

ABBREVIATIONS USED IN REMARKS
   TC - TEMPERATURE IN CELSIUS
  WCI - WIND CHILL INDEX
   HX - HEAT INDEX
  VSB - VISIBILITY
$$




USA.gov is the U.S. government's official web portal to all federal, state and local government web resources and services.